• Em Portugal
  • Lista de países
  • Para 7 dias
  • Temperatura da água
  • Mapas de satélite
  • Mapa do tempo
  • Widgets de tempo
  • user-avatar
    Iniciar Sessão

    Previsão horária em Bejrut

    Hoje, 11 Dezembro, Segunda-feira

    Tempo Temperatura Precipitação Vento Pressão Humidade
    00:00 +16°C° 0 mm 3 m/s 762 mmHg 49%
    01:00 +14°C° 0 mm 3 m/s 762 mmHg 49%
    02:00 +14°C° 0 mm 3 m/s 762 mmHg 55%
    03:00 +14°C° 0 mm 3 m/s 763 mmHg 52%
    04:00 +14°C° 0 mm 4 m/s 763 mmHg 50%
    05:00 +14°C° 0 mm 4 m/s 763 mmHg 48%
    06:00 +15°C° 0 mm 4 m/s 763 mmHg 45%
    07:00 +17°C° 0 mm 4 m/s 763 mmHg 42%
    08:00 +18°C° 0 mm 4 m/s 763 mmHg 39%
    09:00 +19°C° 0 mm 4 m/s 764 mmHg 33%
    10:00 +21°C° 0 mm 4 m/s 764 mmHg 27%
    11:00 +23°C° 0 mm 4 m/s 764 mmHg 21%
    12:00 +23°C° 0 mm 4 m/s 763 mmHg 21%
    13:00 +23°C° 0 mm 4 m/s 763 mmHg 21%
    14:00 +25°C° 0 mm 4 m/s 763 mmHg 21%
    15:00 +22°C° 0 mm 4 m/s 763 mmHg 25%
    16:00 +20°C° 0 mm 4 m/s 763 mmHg 29%
    17:00 +19°C° 0 mm 4 m/s 763 mmHg 33%
    18:00 +18°C° 0 mm 4 m/s 763 mmHg 31%
    19:00 +18°C° 0 mm 4 m/s 763 mmHg 28%
    20:00 +18°C° 0 mm 4 m/s 763 mmHg 26%
    21:00 +18°C° 0 mm 3 m/s 763 mmHg 24%
    22:00 +18°C° 0 mm 3 m/s 763 mmHg 22%
    23:00 +18°C° 0 mm 3 m/s 763 mmHg 21%

    Amanhã, 12 Dezembro, Terça-feira

    Tempo Temperatura Precipitação Vento Pressão Humidade
    00:00 +18°C° 0 mm 3 m/s 763 mmHg 21%
    01:00 +18°C° 0 mm 3 m/s 763 mmHg 21%
    02:00 +18°C° 0 mm 3 m/s 763 mmHg 21%
    03:00 +18°C° 0 mm 3 m/s 763 mmHg 22%
    04:00 +18°C° 0 mm 3 m/s 762 mmHg 22%
    05:00 +18°C° 0 mm 3 m/s 762 mmHg 23%
    06:00 +18°C° 0 mm 3 m/s 762 mmHg 24%
    07:00 +19°C° 0 mm 3 m/s 762 mmHg 25%
    08:00 +20°C° 0 mm 2 m/s 762 mmHg 26%
    09:00 +23°C° 0 mm 2 m/s 762 mmHg 24%
    10:00 +25°C° 0 mm 2 m/s 762 mmHg 21%
    11:00 +27°C° 0 mm 2 m/s 762 mmHg 19%
    12:00 +27°C° 0 mm 2 m/s 761 mmHg 19%
    13:00 +27°C° 0 mm 3 m/s 761 mmHg 19%
    14:00 +27°C° 0 mm 3 m/s 760 mmHg 20%
    15:00 +25°C° 0 mm 3 m/s 760 mmHg 24%
    16:00 +22°C° 0 mm 3 m/s 760 mmHg 29%
    17:00 +20°C° 0 mm 3 m/s 760 mmHg 34%
    18:00 +20°C° 0 mm 2 m/s 760 mmHg 32%
    19:00 +19°C° 0 mm 2 m/s 760 mmHg 30%
    20:00 +19°C° 0 mm 2 m/s 760 mmHg 28%
    21:00 +19°C° 0 mm 2 m/s 760 mmHg 27%
    22:00 +18°C° 0 mm 2 m/s 760 mmHg 26%
    23:00 +18°C° 0 mm 2 m/s 760 mmHg 24%

    Depois de amanhã, 13 Dezembro, Quarta-feira

    Tempo Temperatura Precipitação Vento Pressão Humidade
    00:00 +17°C° 0 mm 2 m/s 760 mmHg 24%
    01:00 +18°C° 0 mm 1 m/s 760 mmHg 24%
    02:00 +18°C° 0 mm 1 m/s 760 mmHg 23%
    03:00 +16°C° 0 mm 1 m/s 759 mmHg 24%
    04:00 +16°C° 0 mm 2 m/s 759 mmHg 24%
    05:00 +16°C° 0 mm 2 m/s 759 mmHg 25%
    06:00 +17°C° 0 mm 2 m/s 759 mmHg 28%
    07:00 +19°C° 0 mm 1 m/s 759 mmHg 31%
    08:00 +20°C° 0 mm 1 m/s 760 mmHg 34%
    09:00 +20°C° 0 mm 2 m/s 759 mmHg 31%
    10:00 +23°C° 0 mm 2 m/s 759 mmHg 28%
    11:00 +24°C° 0 mm 2 m/s 759 mmHg 26%
    12:00 +24°C° 0 mm 2 m/s 759 mmHg 27%
    13:00 +24°C° 0 mm 2 m/s 758 mmHg 28%
    14:00 +24°C° 0 mm 3 m/s 758 mmHg 29%
    15:00 +21°C° 0 mm 2 m/s 758 mmHg 35%
    16:00 +20°C° 0 mm 2 m/s 758 mmHg 41%
    17:00 +18°C° 0 mm 2 m/s 758 mmHg 47%
    18:00 +18°C° 0 mm 2 m/s 758 mmHg 48%
    19:00 +17°C° 0 mm 2 m/s 759 mmHg 48%
    20:00 +17°C° 0 mm 2 m/s 759 mmHg 49%
    21:00 +16°C° 0 mm 2 m/s 759 mmHg 49%
    22:00 +16°C° 0 mm 1 m/s 759 mmHg 49%
    23:00 +15°C° 0 mm 1 m/s 759 mmHg 50%

    14 Dezembro, Quinta-feira

    Tempo Temperatura Precipitação Vento Pressão Humidade
    00:00 +15°C° 0 mm 1 m/s 759 mmHg 50%
    01:00 +15°C° 0 mm 1 m/s 759 mmHg 50%
    02:00 +14°C° 0 mm 1 m/s 759 mmHg 51%
    03:00 +14°C° 0 mm 1 m/s 759 mmHg 52%
    04:00 +14°C° 0 mm 1 m/s 759 mmHg 52%
    05:00 +14°C° 0 mm 1 m/s 759 mmHg 53%
    06:00 +15°C° 0 mm 1 m/s 759 mmHg 50%
    07:00 +16°C° 0 mm 1 m/s 760 mmHg 48%
    08:00 +18°C° 0 mm 1 m/s 760 mmHg 46%
    09:00 +20°C° 0 mm 1 m/s 760 mmHg 42%
    10:00 +20°C° 0 mm 2 m/s 760 mmHg 38%
    11:00 +21°C° 0 mm 2 m/s 760 mmHg 34%
    12:00 +21°C° 0 mm 3 m/s 759 mmHg 37%
    13:00 +21°C° 0 mm 3 m/s 759 mmHg 40%
    14:00 +21°C° 0 mm 3 m/s 758 mmHg 42%
    15:00 +20°C° 0 mm 3 m/s 758 mmHg 52%
    16:00 +18°C° 0 mm 3 m/s 759 mmHg 62%
    17:00 +17°C° 0 mm 3 m/s 759 mmHg 72%
    18:00 +17°C° 0 mm 3 m/s 759 mmHg 76%
    19:00 +16°C° 0 mm 3 m/s 759 mmHg 79%
    20:00 +14°C° 0 mm 3 m/s 759 mmHg 83%
    21:00 +14°C° 0 mm 3 m/s 759 mmHg 83%
    22:00 +14°C° 0 mm 3 m/s 759 mmHg 82%
    23:00 +14°C° 0 mm 4 m/s 759 mmHg 82%

    15 Dezembro, Sexta-feira

    Tempo Temperatura Precipitação Vento Pressão Humidade
    00:00 +14°C° 0 mm 4 m/s 759 mmHg 85%
    01:00 +14°C° 0 mm 4 m/s 759 mmHg 87%
    02:00 +13°C° 0 mm 4 m/s 759 mmHg 90%
    03:00 +13°C° 0,1 mm 4 m/s 759 mmHg 91%
    04:00 +13°C° 0,1 mm 4 m/s 759 mmHg 91%
    05:00 +13°C° 0,1 mm 3 m/s 759 mmHg 92%
    06:00 +14°C° 0,1 mm 3 m/s 759 mmHg 89%
    07:00 +16°C° 0,1 mm 3 m/s 759 mmHg 86%
    08:00 +16°C° 0,1 mm 3 m/s 760 mmHg 83%
    09:00 +17°C° 0,1 mm 3 m/s 760 mmHg 76%
    10:00 +18°C° 0,1 mm 3 m/s 760 mmHg 69%
    11:00 +19°C° 0,1 mm 2 m/s 759 mmHg 62%
    12:00 +19°C° 0,2 mm 3 m/s 759 mmHg 62%
    13:00 +20°C° 0,2 mm 3 m/s 759 mmHg 62%
    14:00 +20°C° 0,2 mm 3 m/s 759 mmHg 62%
    15:00 +19°C° 0,1 mm 2 m/s 759 mmHg 67%
    16:00 +18°C° 0,1 mm 2 m/s 759 mmHg 73%
    17:00 +17°C° 0,1 mm 2 m/s 760 mmHg 79%
    18:00 +18°C° 0 mm 1 m/s 760 mmHg 81%
    19:00 +16°C° 0 mm 1 m/s 760 mmHg 84%
    20:00 +16°C° 0 mm 1 m/s 761 mmHg 86%
    21:00 +16°C° 0 mm 1 m/s 761 mmHg 87%
    22:00 +15°C° 0 mm 1 m/s 761 mmHg 88%
    23:00 +15°C° 0 mm 1 m/s 761 mmHg 89%

    16 Dezembro, Sábado

    Tempo Temperatura Precipitação Vento Pressão Humidade
    00:00 +15°C° 0 mm 1 m/s 761 mmHg 90%
    01:00 +14°C° 0 mm 1 m/s 761 mmHg 90%
    02:00 +14°C° 0 mm 1 m/s 761 mmHg 91%
    03:00 +14°C° 0 mm 1 m/s 761 mmHg 90%
    04:00 +14°C° 0 mm 1 m/s 761 mmHg 90%
    05:00 +14°C° 0 mm 1 m/s 761 mmHg 89%
    06:00 +15°C° 0 mm 1 m/s 761 mmHg 85%
    07:00 +16°C° 0 mm 1 m/s 761 mmHg 81%
    08:00 +18°C° 0 mm 1 m/s 762 mmHg 77%
    09:00 +19°C° 0 mm 1 m/s 761 mmHg 71%
    10:00 +20°C° 0 mm 1 m/s 761 mmHg 65%
    11:00 +21°C° 0 mm 1 m/s 761 mmHg 59%
    12:00 +21°C° 0 mm 1 m/s 761 mmHg 58%
    13:00 +21°C° 0 mm 1 m/s 760 mmHg 58%
    14:00 +21°C° 0 mm 1 m/s 760 mmHg 58%
    15:00 +20°C° 0 mm 1 m/s 760 mmHg 63%
    16:00 +19°C° 0 mm 1 m/s 760 mmHg 68%
    17:00 +18°C° 0 mm 1 m/s 760 mmHg 74%
    18:00 +17°C° 0 mm 2 m/s 761 mmHg 74%
    19:00 +17°C° 0 mm 2 m/s 761 mmHg 74%
    20:00 +16°C° 0 mm 2 m/s 761 mmHg 75%
    21:00 +16°C° 0 mm 2 m/s 761 mmHg 75%
    22:00 +16°C° 0 mm 2 m/s 761 mmHg 75%
    23:00 +15°C° 0 mm 2 m/s 762 mmHg 75%
    Mostrar mais